| time (UTC) | temp F | wind direction | speed MPH | gust MPH | rain 1hr in | rain 24hr in | rain mn in | humidity % | barometer mb |
| 20260507111611 | 51 | 195 | 32.0 | 32.0 | 0.00 | 0.44 | 0.09 | 80 | 1014.0 |
| 20260507110111 | 51 | 195 | 32.0 | 32.0 | 0.00 | 0.47 | 0.09 | 80 | 1014.0 |
| 20260507104611 | 51 | 195 | 32.0 | 32.0 | 0.00 | 0.47 | 0.09 | 79 | 1014.0 |
| 20260507103111 | 51 | 195 | 32.0 | 32.0 | 0.00 | 0.47 | 0.09 | 79 | 1014.0 |
| 20260507101611 | 51 | 195 | 32.0 | 32.0 | 0.00 | 0.47 | 0.09 | 80 | 1013.0 |
| 20260507100111 | 51 | 195 | 32.0 | 32.0 | 0.00 | 0.47 | 0.09 | 80 | 1013.0 |
| 20260507094611 | 50 | 195 | 32.0 | 32.0 | 0.00 | 0.47 | 0.09 | 81 | 1013.0 |
| 20260507093111 | 50 | 195 | 32.0 | 32.0 | 0.00 | 0.47 | 0.09 | 82 | 1013.0 |
| 20260507091614 | 50 | 195 | 32.0 | 32.0 | 0.00 | 0.47 | 0.09 | 83 | 1013.0 |
| 20260507090111 | 50 | 195 | 32.0 | 32.0 | 0.00 | 0.47 | 0.09 | 83 | 1013.0 |
| 20260507084611 | 49 | 195 | 32.0 | 32.0 | 0.00 | 0.47 | 0.09 | 86 | 1012.0 |
| 20260507083111 | 49 | 195 | 32.0 | 32.0 | 0.00 | 0.47 | 0.09 | 86 | 1012.0 |
| 20260507081611 | 49 | 195 | 32.0 | 32.0 | 0.00 | 0.47 | 0.09 | 86 | 1012.0 |
| 20260507080111 | 47 | 195 | 32.0 | 32.0 | 0.00 | 0.49 | 0.09 | 87 | 1012.2 |
| 20260507074611 | 47 | 195 | 32.0 | 32.0 | 0.00 | 0.49 | 0.09 | 87 | 1012.2 |
| 20260507073111 | 47 | 195 | 32.0 | 32.0 | 0.00 | 0.49 | 0.09 | 87 | 1012.2 |
| 20260507071611 | 47 | 195 | 32.0 | 32.0 | 0.00 | 0.49 | 0.09 | 86 | 1011.2 |
| 20260507070111 | 47 | 195 | 32.0 | 32.0 | 0.00 | 0.50 | 0.08 | 85 | 1011.1 |
| 20260507064611 | 48 | 195 | 32.0 | 32.0 | 0.00 | 0.50 | 0.08 | 86 | 1011.1 |
| 20260507063111 | 48 | 195 | 32.0 | 32.0 | 0.00 | 0.50 | 0.08 | 86 | 1011.1 |
| 20260507061611 | 49 | 195 | 32.0 | 32.0 | 0.00 | 0.50 | 0.08 | 86 | 1011.1 |
| 20260507060111 | 49 | 195 | 32.0 | 32.0 | 0.00 | 0.52 | 0.08 | 86 | 1010.0 |
| 20260507054611 | 49 | 195 | 32.0 | 32.0 | 0.00 | 0.52 | 0.08 | 85 | 1010.0 |
| 20260507053111 | 49 | 195 | 32.0 | 32.0 | 0.00 | 0.52 | 0.08 | 85 | 1010.0 |
| 20260507051611 | 48 | 195 | 32.0 | 32.0 | 0.00 | 0.52 | 0.08 | 84 | 1010.0 |
| 20260507050111 | 48 | 195 | 32.0 | 32.0 | 0.00 | 0.52 | 0.08 | 85 | 1010.0 |
| 20260507044611 | 49 | 195 | 32.0 | 32.0 | 0.00 | 0.52 | 0.08 | 85 | 1009.0 |
| 20260507043111 | 49 | 195 | 32.0 | 32.0 | 0.00 | 0.52 | 0.08 | 85 | 1009.0 |
| 20260507041611 | 49 | 195 | 32.0 | 32.0 | 0.00 | 0.52 | 0.08 | 85 | 1009.0 |
| 20260507040111 | 48 | 195 | 32.0 | 32.0 | 0.00 | 0.53 | 0.08 | 85 | 1009.0 |
| 20260507034611 | 48 | 195 | 32.0 | 32.0 | 0.00 | 0.53 | 0.08 | 85 | 1009.0 |
| 20260507033111 | 48 | 195 | 32.0 | 32.0 | 0.00 | 0.53 | 0.08 | 85 | 1009.0 |
| 20260507031611 | 48 | 195 | 32.0 | 32.0 | 0.02 | 0.53 | 0.08 | 85 | 1009.0 |
| 20260507030111 | 48 | 195 | 32.0 | 32.0 | 0.03 | 0.62 | 0.08 | 85 | 1009.0 |
| 20260507024611 | 48 | 195 | 32.0 | 32.0 | 0.03 | 0.62 | 0.08 | 85 | 1009.0 |
| 20260507023111 | 48 | 195 | 32.0 | 32.0 | 0.03 | 0.62 | 0.08 | 85 | 1008.0 |
| 20260507021611 | 48 | 195 | 32.0 | 32.0 | 0.04 | 0.61 | 0.06 | 85 | 1008.0 |
| 20260507020111 | 48 | 195 | 32.0 | 32.0 | 0.03 | 0.71 | 0.05 | 85 | 1008.0 |
| 20260507014611 | 48 | 195 | 32.0 | 32.0 | 0.03 | 0.70 | 0.05 | 85 | 1008.0 |
| 20260507013111 | 48 | 195 | 32.0 | 32.0 | 0.03 | 0.70 | 0.04 | 84 | 1008.0 |
| 20260507011611 | 48 | 195 | 32.0 | 32.0 | 0.02 | 0.68 | 0.03 | 84 | 1008.0 |
| 20260507010111 | 48 | 195 | 32.0 | 32.0 | 0.01 | 0.81 | 0.02 | 84 | 1008.0 |
| 20260507004611 | 48 | 195 | 32.0 | 32.0 | 0.01 | 0.81 | 0.01 | 84 | 1008.0 |
| 20260507003111 | 48 | 195 | 32.0 | 32.0 | 0.01 | 0.81 | 0.01 | 84 | 1008.0 |
| 20260507001611 | 48 | 195 | 32.0 | 32.0 | 0.01 | 0.81 | 0.01 | 84 | 1008.0 |
| 20260507000111 | 48 | 195 | 32.0 | 32.0 | 0.00 | 0.91 | 0.00 | 84 | 1008.0 |
| 20260506234611 | 48 | 195 | 32.0 | 32.0 | 0.00 | 0.91 | 0.00 | 84 | 1008.0 |
| 20260506233110 | 48 | 195 | 32.0 | 32.0 | 0.00 | 0.91 | 0.00 | 84 | 1008.0 |
| 20260506231611 | 48 | 195 | 32.0 | 32.0 | 0.00 | 0.91 | 0.00 | 84 | 1008.0 |
| 20260506230111 | 48 | 195 | 32.0 | 32.0 | 0.00 | 1.06 | 0.00 | 84 | 1008.0 |
| 20260506224611 | 48 | 195 | 32.0 | 32.0 | 0.00 | 1.06 | 0.00 | 84 | 1008.0 |
| 20260506223111 | 48 | 195 | 32.0 | 32.0 | 0.00 | 1.06 | 0.00 | 84 | 1008.0 |
| 20260506221611 | 48 | 195 | 32.0 | 32.0 | 0.00 | 1.06 | 0.00 | 84 | 1008.0 |
| 20260506220111 | 48 | 195 | 32.0 | 32.0 | 0.00 | 1.12 | 1.12 | 84 | 1008.0 |
| 20260506214611 | 48 | 195 | 32.0 | 32.0 | 0.00 | 1.12 | 1.12 | 84 | 1008.0 |
| 20260506213111 | 49 | 195 | 32.0 | 32.0 | 0.00 | 1.11 | 1.11 | 84 | 1006.9 |
| 20260506211611 | 49 | 195 | 32.0 | 32.0 | 0.00 | 1.11 | 1.11 | 84 | 1006.9 |
| 20260506210111 | 49 | 195 | 32.0 | 32.0 | 0.00 | 1.20 | 1.11 | 84 | 1006.9 |
| 20260506204611 | 50 | 195 | 32.0 | 32.0 | 0.00 | 1.20 | 1.11 | 84 | 1006.9 |
| 20260506203111 | 50 | 195 | 32.0 | 32.0 | 0.00 | 1.20 | 1.11 | 84 | 1006.8 |
| 20260506201611 | 51 | 195 | 32.0 | 32.0 | 0.01 | 1.20 | 1.11 | 83 | 1006.8 |
| 20260506200111 | 51 | 195 | 32.0 | 32.0 | 0.03 | 1.23 | 1.11 | 83 | 1006.8 |
| 20260506194611 | 51 | 195 | 32.0 | 32.0 | 0.03 | 1.23 | 1.11 | 83 | 1006.8 |
| 20260506193111 | 52 | 195 | 32.0 | 32.0 | 0.03 | 1.23 | 1.11 | 83 | 1006.7 |
| 20260506191611 | 52 | 195 | 32.0 | 32.0 | 0.02 | 1.22 | 1.10 | 84 | 1005.7 |
| 20260506190111 | 53 | 195 | 32.0 | 32.0 | 0.01 | 1.23 | 1.09 | 84 | 1005.7 |
| 20260506184611 | 53 | 195 | 32.0 | 32.0 | 0.00 | 1.23 | 1.08 | 85 | 1005.6 |
| 20260506183111 | 54 | 195 | 32.0 | 32.0 | 0.00 | 1.23 | 1.08 | 85 | 1005.6 |
| 20260506181610 | 54 | 195 | 32.0 | 32.0 | 0.00 | 1.23 | 1.08 | 85 | 1005.6 |
| 20260506180111 | 54 | 195 | 32.0 | 32.0 | 0.00 | 1.25 | 1.08 | 85 | 1005.6 |
| 20260506174611 | 55 | 195 | 32.0 | 32.0 | 0.00 | 1.25 | 1.08 | 85 | 1005.5 |
| 20260506173110 | 55 | 195 | 32.0 | 32.0 | 0.00 | 1.25 | 1.08 | 85 | 1005.5 |
| 20260506171611 | 55 | 195 | 32.0 | 32.0 | 0.00 | 1.25 | 1.08 | 85 | 1004.5 |
| 20260506170111 | 56 | 195 | 32.0 | 32.0 | 0.00 | 1.25 | 1.08 | 84 | 1004.4 |
| 20260506164611 | 58 | 195 | 32.0 | 32.0 | 0.00 | 1.25 | 1.08 | 83 | 1004.3 |
| 20260506163111 | 58 | 195 | 32.0 | 32.0 | 0.00 | 1.25 | 1.08 | 82 | 1004.3 |
| 20260506161611 | 60 | 195 | 32.0 | 32.0 | 0.00 | 1.25 | 1.08 | 79 | 1004.2 |
| 20260506160111 | 61 | 195 | 32.0 | 32.0 | 0.00 | 1.25 | 1.08 | 79 | 1004.2 |
| 20260506154611 | 61 | 195 | 32.0 | 32.0 | 0.00 | 1.25 | 1.08 | 79 | 1004.2 |
| 20260506153111 | 61 | 195 | 32.0 | 32.0 | 0.00 | 1.25 | 1.08 | 79 | 1004.2 |
| 20260506151610 | 63 | 195 | 32.0 | 32.0 | 0.00 | 1.25 | 1.08 | 75 | 1004.1 |
| 20260506150111 | 63 | 195 | 32.0 | 32.0 | 0.00 | 1.25 | 1.08 | 75 | 1004.1 |
| 20260506144611 | 63 | 195 | 32.0 | 32.0 | 0.00 | 1.25 | 1.08 | 75 | 1004.1 |
| 20260506143110 | 63 | 195 | 32.0 | 32.0 | 0.00 | 1.25 | 1.08 | 74 | 1004.0 |
| 20260506141611 | 62 | 195 | 32.0 | 32.0 | 0.00 | 1.25 | 1.08 | 77 | 1004.1 |
| 20260506140110 | 62 | 195 | 32.0 | 32.0 | 0.00 | 1.26 | 1.08 | 76 | 1004.1 |
| 20260506134611 | 57 | 195 | 32.0 | 32.0 | 0.00 | 1.26 | 1.08 | 84 | 1004.4 |
| 20260506133111 | 57 | 195 | 32.0 | 32.0 | 0.00 | 1.26 | 1.08 | 84 | 1004.4 |
| 20260506131611 | 57 | 195 | 32.0 | 32.0 | 0.12 | 1.26 | 1.08 | 84 | 1004.4 |
| 20260506130111 | 56 | 195 | 32.0 | 32.0 | 0.31 | 1.26 | 1.08 | 84 | 1004.4 |
| 20260506124611 | 56 | 195 | 32.0 | 32.0 | 0.33 | 1.25 | 1.07 | 84 | 1004.4 |
| 20260506123111 | 55 | 195 | 32.0 | 32.0 | 0.30 | 1.21 | 1.04 | 85 | 1004.5 |
| 20260506121610 | 55 | 195 | 32.0 | 32.0 | 0.22 | 1.13 | 0.96 | 85 | 1004.5 |
| 20260506120110 | 56 | 195 | 32.0 | 32.0 | 0.03 | 0.94 | 0.77 | 84 | 1004.4 |
| 20260506114610 | 58 | 195 | 32.0 | 32.0 | 0.00 | 0.92 | 0.74 | 80 | 1004.3 |
| 20260506113111 | 58 | 195 | 32.0 | 32.0 | 0.00 | 0.91 | 0.74 | 80 | 1004.3 |